#timestamp,LO_Frequency,Hit,StdDev 
1683410415.7,286047002.8,N
1683410435.6,286047002.2,N
1683410455.4,286047002.1,N
1683410475.2,286047000.5,N
1683410495.1,286047000.4,N
1683410496.0,286047000.4,N
1683410515.8,286047002.8,N
1683410535.6,286046999.8,N
1683410555.5,286047000.2,N
1683410575.3,286047000.5,N
1683410595.2,286047002.3,N
1683410615.9,286047001.8,N
1683410635.7,286047001.5,N
1683410655.6,286047004.3,Y
1683410675.4,286047002.7,P
1683410695.3,286047001.5,N
1683410715.1,286047002.0,P
1683410716.0,286047002.0,Y
1683410735.8,286047000.1,P
1683410755.7,286047000.3,N
1683410775.5,286046999.9,N
1683410795.3,286046999.9,N
1683410815.2,286047002.7,Y
1683410835.0,286046998.7,P
1683410835.9,286046998.7,N
1683410855.8,286046998.1,N
1683410875.6,286047001.0,N
1683410895.4,286046998.5,N
1683410915.3,286046998.3,N
1683410935.1,286046998.3,N
1683410955.9,286046998.6,N
1683410975.7,286046999.2,N
1683410995.5,286046998.1,N
1683411015.4,286046998.2,N
1683411035.2,286047001.2,N
1683411055.0,286046998.9,N
1683411055.9,286046998.9,N
1683411075.8,286046998.2,N
1683411095.6,286047001.1,N
1683411115.5,286046999.7,N
1683411135.3,286046999.9,N
1683411155.1,286047002.7,N
1683411175.9,286047000.0,N
1683411195.7,286046999.9,N
1683411215.6,286047002.7,N
1683411235.4,286046999.8,N
1683411255.2,286047000.0,N
1683411275.1,286047000.4,N
1683411276.0,286047000.4,N
1683411295.8,286047000.3,N
1683411315.6,286047002.8,N
1683411335.5,286047002.7,N
1683411355.3,286047002.5,N
1683411375.2,286047002.4,N
1683411395.9,286047002.3,N
1683411415.7,286047003.9,N
1683411435.6,286047004.3,N
1683411455.4,286047002.2,N
1683411475.2,286047001.7,N
1683411495.1,286047004.0,N
1683411496.0,286047004.0,N
1683411515.8,286047004.0,N
1683411535.7,286047001.7,N
1683411585.5,286047003.8,E
1683411595.4,286047002.7,N
1683411615.3,286046998.9,P
1683411635.1,286046999.2,N
1683411655.9,286046996.7,N
1683411675.7,286046997.0,N
1683411695.5,286046996.5,N
1683411715.4,286046999.0,N
1683411735.2,286046999.6,N
1683411755.0,286046999.4,N
1683411755.9,286046999.4,N
1683411775.8,286046996.8,N
1683411795.6,286046999.5,N
1683411815.5,286046999.4,N
1683411835.3,286046998.9,N
1683411855.1,286046998.9,N
1683411875.9,286046998.8,N
1683411895.7,286046999.0,N
1683411915.6,286046999.4,N
1683411935.4,286046998.8,N
1683411955.2,286046998.1,N
1683411975.1,286046999.2,N
1683411976.0,286046999.2,N
1683411995.8,286046998.9,N
1683412015.6,286046997.1,N
1683412035.5,286046998.8,N
1683412055.3,286046999.1,N
1683412075.2,286046999.3,N
1683412095.9,286046998.9,N
1683412115.7,286046998.4,N
1683412135.6,286047001.0,N
1683412155.4,286047000.3,N
1683412175.2,286046998.5,N
1683412195.1,286046998.4,N
1683412196.0,286046998.4,N
1683412215.8,286046999.2,N
1683412235.7,286046999.2,N
1683412255.5,286046998.4,N
1683412275.3,286046999.5,N
1683412295.2,286046999.3,N
1683412315.0,286046998.2,N
1683412315.9,286046998.2,N
1683412335.7,286046998.1,N
1683412355.6,286047001.1,N
1683412375.4,286047000.7,N
1683412395.3,286046998.3,N
1683412415.1,286046998.3,N
1683412416.0,286046998.3,N
1683412435.8,286046998.7,N
1683412455.7,286046999.0,N
1683412475.5,286046998.6,N
1683412495.4,286047011.9,Y
1683412515.2,286047000.8,P
1683412535.0,286047001.1,N
1683412535.9,286047001.1,N
1683412555.8,286046999.9,N
1683412575.6,286047002.3,N
1683412595.4,286047002.7,N
1683412615.3,286046999.9,N
1683412635.1,286047000.0,N
1683412655.8,286047000.9,N
1683412675.7,286046999.9,N
1683412695.5,286047001.0,N
1683412715.4,286046998.7,N
1683412735.2,286046998.4,N
1683412755.0,286046998.9,N
1683412755.9,286046998.9,N
1683412775.8,286046998.7,N
1683412795.6,286046999.0,N
1683412815.4,286046998.6,N
1683412835.3,286047000.8,N
1683412855.1,286046998.5,N
1683412875.9,286046999.0,N
1683412895.7,286046998.3,N
1683412915.5,286046998.3,N
1683412935.4,286046999.0,N
1683412955.2,286046999.6,N
1683412975.0,286046997.3,N
1683412975.9,286046997.3,N
1683412995.8,286046997.9,N
1683413015.6,286046997.2,N
1683413035.5,286046999.3,N
1683413055.3,286046999.3,N
1683413075.1,286046996.5,N
1683413095.9,286046999.2,N
1683413115.7,286046999.6,N
1683413135.5,286046999.2,N
1683413155.4,286046999.3,N
1683413175.2,286046998.0,N
1683413195.1,286046997.2,N
1683413196.0,286046997.2,N
1683413215.8,286046999.2,N
1683413235.6,286046996.5,Y
1683413255.5,286046998.2,P
1683413275.3,286047000.8,P
1683413295.1,286047001.2,N
1683413315.9,286046998.8,N
1683413335.7,286046998.1,N
1683413355.6,286047000.6,N
1683413375.4,286047001.2,N
1683413395.2,286046998.1,N
1683413415.1,286047001.8,N
1683413446.0,286047002.4,E
1683413455.0,286047000.3,N
1683413455.9,286047000.3,P
1683413475.7,286046999.4,P
1683413495.6,286046996.9,Y
1683413515.4,286046996.8,P
1683413535.3,286046994.9,P
1683413555.1,286046995.2,N
1683413575.8,286046994.9,N
1683413595.7,286046997.6,N
1683413615.5,286046997.8,N
1683413635.3,286046996.6,N
1683413655.2,286046999.5,N
1683413675.0,286046995.5,N
1683413675.9,286046995.5,N
1683413695.8,286046995.9,N
1683413715.6,286046997.5,N
1683413735.4,286046998.6,N
1683413755.3,286047000.2,N
1683413775.1,286047001.5,N
1683413795.8,286047003.9,N
1683413815.7,286047003.8,N
1683413835.5,286047001.6,N
1683413855.4,286047004.3,N
1683413875.2,286047005.7,N
1683413895.0,286047005.6,N
1683413895.9,286047005.6,N
1683413915.8,286047005.5,N
1683413935.6,286047004.8,N
1683413955.4,286047005.3,N
1683413975.3,286047003.0,N
1683413995.1,286047003.1,N
